Location: Écuvilly
(49.6505°N, 2.9206°E)
Time: 16:50:40
(UTC+00:00)

ATLAS 2AS CENTAUR R/B - Pass Details

Date: 17 November 2025
Orbit: 1047 x 1163 km, 63.7° (Epoch: 09 December)

Event Time Altitude Azimuth Distance (km) Brightness Sun altitude
Rises 18:14:54 0° 315° (NW) 3,859 6.2 -21.1°
Reaches altitude 10° 18:17:42 10° 321° (NW) 2,890 5.4 -21.6°
Maximum altitude 18:24:14 47° 34° (NE) 1,370 3.0 -22.6°
Enters shadow 18:25:35 42° 66° (ENE) 1,465 2.9 -22.9°
